sat.trackr.live / text

‹ back to catalog

GEESAT-6 07

NORAD 65719 · 2025-214H

PAYLOAD ACTIVE UNKNOWN

§ Identity

Operator
Country
PRC
Launch date
2025-09-24
Launch site
YSLA
Launch vehicle
Mass (kg)
RCS (m²)

External: N2YO · Heavens-Above · Gunter

§ Orbital elements

Epoch: 2026-05-25T04:08:06.771840Z

Period
97.08 min
Inclination
49.9816°
Eccentricity
0.0009650
Mean motion
14.83274754 rev/d
Perigee alt
612.3 km
Apogee alt
625.8 km
Semi-major
6,997.1 km
B*
2.1399e-4
RAAN
54.5680°
Arg perigee
145.1193°
Mean anomaly
215.0379°
Rev number
3,610

§ Raw data

GEESAT-6 071 65719U 25214H   26145.17230060  .00001543  00000+0  21399-3 0  99982 65719  49.9816  54.5680 0009650 145.1193 215.0379 14.83274754 36101

JSON: /api/v1/satellites/65719 · /tle

For live sub-satellite position, see the globe view (requires WebGL).

§ Visibility from observer

Set your observer location to see the next 7 days of passes ≥ 10°. The values pass through the URL so the page stays shareable.

No JS? Fill the form by hand. The geolocation button needs JavaScript.